Kezdőlap
METAR-TAF:

METAR-TAF

Repülőterek :

New Ulm Municipal Airport

New Ulm, Minnesota, Amerikai Egyesült Államok

földrajzi szélesség: 44-19N, földrajzi hosszúság: 094-30W, magasság: 308 m

Jelenlegi meteorológiai megfigyelések

A jelentés 17 perccel ezelõtt készült, 12:35 UTC
Nyugati szél 4 kt
Hőmérséklet -1°C
Páratartalom 69%
Légköri nyomás 1027 hPa
Látótávolság: 16.1 km
Borult 9000 lábon

METAR: KULM 041235Z AUTO 28004KT 10SM OVC090 M01/M06 A3032 RMK AO2

Idő: 06:52 (12:52 UTC)


TAF: hiányzik

Meteorológiai megfigyelések és előrejelzések több, mint 4000 repülőtéren (METAR és TAF jelentéseket).

A térképen piros és sárga pontok jelzik az elérhető meteorológiai állomásokat.

Mozgassa az egeret a pont fölött, hogy megjelenjen az állomás neve.

Azután kattintson az időjárási megfigyelések és előrejelzések megtekintéséhez.

A térkép megváltoztatása: kattintson a fekete keresztel jelölt zöld gombra ráközelítéshez, a vonallal jelölt zöld gombra távolításhoz, vagy a zöld nyilakra a szomszédos térképek eléréséhez.


METAR-TAF: